Time,TemperatureF,DewpointF,PressureIn,WindDirection,WindDirectionDegrees,WindSpeedMPH,WindSpeedGustMPH,Humidity,HourlyPrecipIn,Conditions,Clouds,dailyrainin,SoftwareType,DateUTC
2015-03-31 00:08:00,-999.9,-99.9,30.07,North,-9999,-999.9,-999.0,-999,-99.99,,,0.00,weatherlink.com 1.10,2015-03-31 07:08:00,
2015-03-31 00:23:00,-999.9,-99.9,30.07,North,-9999,-999.9,-999.0,-999,-99.99,,,0.00,weatherlink.com 1.10,2015-03-31 07:23:00,
2015-03-31 00:38:00,-999.9,-99.9,30.07,North,-9999,-999.9,-999.0,-999,-99.99,,,0.00,weatherlink.com 1.10,2015-03-31 07:38:00,
2015-03-31 00:53:00,-999.9,-99.9,30.07,North,-9999,-999.9,-999.0,-999,-99.99,,,0.00,weatherlink.com 1.10,2015-03-31 07:53:00,
2015-03-31 01:08:00,-999.9,-99.9,30.07,North,-9999,-999.9,-999.0,-999,-99.99,,,0.00,weatherlink.com 1.10,2015-03-31 08:08:00,
2015-03-31 01:23:00,-999.9,-99.9,30.08,North,-9999,-999.9,-999.0,-999,-99.99,,,0.00,weatherlink.com 1.10,2015-03-31 08:23:00,
2015-03-31 01:38:00,-999.9,-99.9,30.07,North,-9999,-999.9,-999.0,-999,-99.99,,,0.00,weatherlink.com 1.10,2015-03-31 08:38:00,
2015-03-31 01:53:00,-999.9,-99.9,30.07,North,-9999,-999.9,-999.0,-999,-99.99,,,0.00,weatherlink.com 1.10,2015-03-31 08:53:00,
2015-03-31 02:08:00,-999.9,-99.9,30.07,North,-9999,-999.9,-999.0,-999,-99.99,,,0.00,weatherlink.com 1.10,2015-03-31 09:08:00,
2015-03-31 02:23:00,-999.9,-99.9,30.07,North,-9999,-999.9,-999.0,-999,-99.99,,,0.00,weatherlink.com 1.10,2015-03-31 09:23:00,
2015-03-31 02:38:00,-999.9,-99.9,30.07,North,-9999,-999.9,-999.0,-999,-99.99,,,0.00,weatherlink.com 1.10,2015-03-31 09:38:00,
2015-03-31 02:53:00,-999.9,-99.9,30.07,North,-9999,-999.9,-999.0,-999,-99.99,,,0.00,weatherlink.com 1.10,2015-03-31 09:53:00,
2015-03-31 03:08:00,-999.9,-99.9,30.07,North,-9999,-999.9,-999.0,-999,-99.99,,,0.00,weatherlink.com 1.10,2015-03-31 10:08:00,
2015-03-31 03:23:00,-999.9,-99.9,30.07,North,-9999,-999.9,-999.0,-999,-99.99,,,0.00,weatherlink.com 1.10,2015-03-31 10:23:00,
2015-03-31 03:38:00,-999.9,-99.9,30.07,North,-9999,-999.9,-999.0,-999,-99.99,,,0.00,weatherlink.com 1.10,2015-03-31 10:38:00,
2015-03-31 03:53:00,-999.9,-99.9,30.07,North,-9999,-999.9,-999.0,-999,-99.99,,,0.00,weatherlink.com 1.10,2015-03-31 10:53:00,
2015-03-31 04:08:00,-999.9,-99.9,30.07,North,-9999,-999.9,-999.0,-999,-99.99,,,0.00,weatherlink.com 1.10,2015-03-31 11:08:00,
2015-03-31 04:23:00,-999.9,-99.9,30.07,North,-9999,-999.9,-999.0,-999,-99.99,,,0.00,weatherlink.com 1.10,2015-03-31 11:23:00,
2015-03-31 04:38:00,-999.9,-99.9,30.07,North,-9999,-999.9,-999.0,-999,-99.99,,,0.00,weatherlink.com 1.10,2015-03-31 11:38:00,
2015-03-31 04:53:00,-999.9,-99.9,30.07,North,-9999,-999.9,-999.0,-999,-99.99,,,0.00,weatherlink.com 1.10,2015-03-31 11:53:00,
2015-03-31 05:08:00,-999.9,-99.9,30.07,North,-9999,-999.9,-999.0,-999,-99.99,,,0.00,weatherlink.com 1.10,2015-03-31 12:08:00,
2015-03-31 05:23:00,-999.9,-99.9,30.08,North,-9999,-999.9,-999.0,-999,-99.99,,,0.00,weatherlink.com 1.10,2015-03-31 12:23:00,
2015-03-31 05:38:00,-999.9,-99.9,30.08,North,-9999,-999.9,-999.0,-999,-99.99,,,0.00,weatherlink.com 1.10,2015-03-31 12:38:00,
2015-03-31 05:53:00,-999.9,-99.9,30.08,North,-9999,-999.9,-999.0,-999,-99.99,,,0.00,weatherlink.com 1.10,2015-03-31 12:53:00,
2015-03-31 06:08:00,-999.9,-99.9,30.08,North,-9999,-999.9,-999.0,-999,-99.99,,,0.00,weatherlink.com 1.10,2015-03-31 13:08:00,
2015-03-31 06:23:00,-999.9,-99.9,30.09,North,-9999,-999.9,-999.0,-999,-99.99,,,0.00,weatherlink.com 1.10,2015-03-31 13:23:00,
2015-03-31 06:38:00,-999.9,-99.9,30.09,North,-9999,-999.9,-999.0,-999,-99.99,,,0.00,weatherlink.com 1.10,2015-03-31 13:38:00,
2015-03-31 06:53:00,-999.9,-99.9,30.10,North,-9999,-999.9,-999.0,-999,-99.99,,,0.00,weatherlink.com 1.10,2015-03-31 13:53:00,
2015-03-31 07:08:00,-999.9,-99.9,30.10,North,-9999,-999.9,-999.0,-999,-99.99,,,0.00,weatherlink.com 1.10,2015-03-31 14:08:00,
2015-03-31 07:23:00,-999.9,-99.9,30.11,North,-9999,-999.9,-999.0,-999,-99.99,,,0.00,weatherlink.com 1.10,2015-03-31 14:23:00,
2015-03-31 07:38:00,-999.9,-99.9,30.11,North,-9999,-999.9,-999.0,-999,-99.99,,,0.00,weatherlink.com 1.10,2015-03-31 14:38:00,
2015-03-31 07:53:00,-999.9,-99.9,30.12,North,-9999,-999.9,-999.0,-999,-99.99,,,0.00,weatherlink.com 1.10,2015-03-31 14:53:00,
2015-03-31 08:08:00,-999.9,-99.9,30.12,North,-9999,-999.9,-999.0,-999,-99.99,,,0.00,weatherlink.com 1.10,2015-03-31 15:08:00,
2015-03-31 08:23:00,-999.9,-99.9,30.13,North,-9999,-999.9,-999.0,-999,-99.99,,,0.00,weatherlink.com 1.10,2015-03-31 15:23:00,
2015-03-31 08:38:00,-999.9,-99.9,30.13,North,-9999,-999.9,-999.0,-999,-99.99,,,0.00,weatherlink.com 1.10,2015-03-31 15:38:00,
2015-03-31 08:53:00,-999.9,-99.9,30.14,North,-9999,-999.9,-999.0,-999,-99.99,,,0.00,weatherlink.com 1.10,2015-03-31 15:53:00,
2015-03-31 09:08:00,-999.9,-99.9,30.14,North,-9999,-999.9,-999.0,-999,-99.99,,,0.00,weatherlink.com 1.10,2015-03-31 16:08:00,
2015-03-31 09:23:00,-999.9,-99.9,30.15,North,-9999,-999.9,-999.0,-999,-99.99,,,0.00,weatherlink.com 1.10,2015-03-31 16:23:00,
2015-03-31 09:38:00,-999.9,-99.9,30.15,North,-9999,-999.9,-999.0,-999,-99.99,,,0.00,weatherlink.com 1.10,2015-03-31 16:38:00,
2015-03-31 09:53:00,-999.9,-99.9,30.16,North,-9999,-999.9,-999.0,-999,-99.99,,,0.00,weatherlink.com 1.10,2015-03-31 16:53:00,
2015-03-31 10:08:00,-999.9,-99.9,30.16,North,-9999,-999.9,-999.0,-999,-99.99,,,0.00,weatherlink.com 1.10,2015-03-31 17:08:00,
2015-03-31 10:23:00,-999.9,-99.9,30.16,North,-9999,-999.9,-999.0,-999,-99.99,,,0.00,weatherlink.com 1.10,2015-03-31 17:23:00,
2015-03-31 10:38:00,-999.9,-99.9,30.17,North,-9999,-999.9,-999.0,-999,-99.99,,,0.00,weatherlink.com 1.10,2015-03-31 17:38:00,
2015-03-31 10:53:00,-999.9,-99.9,30.17,North,-9999,-999.9,-999.0,-999,-99.99,,,0.00,weatherlink.com 1.10,2015-03-31 17:53:00,
2015-03-31 11:08:00,56.5,53.0,30.17,NW,311,5.0,-999.0,87,-99.99,,,0.00,weatherlink.com 1.10,2015-03-31 18:08:00,
2015-03-31 11:23:00,56.8,53.0,30.17,WNW,301,7.0,-999.0,86,-99.99,,,0.00,weatherlink.com 1.10,2015-03-31 18:23:00,
2015-03-31 11:38:00,56.9,53.0,30.17,WNW,287,14.0,-999.0,85,-99.99,,,0.00,weatherlink.com 1.10,2015-03-31 18:38:00,
2015-03-31 11:53:00,57.1,53.0,30.17,West,279,15.0,-999.0,85,-99.99,,,0.00,weatherlink.com 1.10,2015-03-31 18:53:00,
2015-03-31 12:08:00,57.1,52.0,30.16,WNW,284,6.0,-999.0,84,-99.99,,,0.00,weatherlink.com 1.10,2015-03-31 19:08:00,
2015-03-31 12:23:00,57.6,53.0,30.17,WSW,241,10.0,-999.0,83,-99.99,,,0.00,weatherlink.com 1.10,2015-03-31 19:23:00,
2015-03-31 12:38:00,57.4,52.0,30.17,West,268,5.0,-999.0,83,-99.99,,,0.00,weatherlink.com 1.10,2015-03-31 19:38:00,
2015-03-31 12:53:00,57.6,52.0,30.17,NW,314,6.0,-999.0,82,-99.99,,,0.00,weatherlink.com 1.10,2015-03-31 19:53:00,
2015-03-31 13:08:00,57.8,52.0,30.17,WNW,296,10.0,-999.0,81,-99.99,,,0.00,weatherlink.com 1.10,2015-03-31 20:08:00,
2015-03-31 13:23:00,57.7,52.0,30.17,NW,318,8.0,-999.0,80,-99.99,,,0.00,weatherlink.com 1.10,2015-03-31 20:23:00,
2015-03-31 13:38:00,57.8,51.0,30.16,WNW,288,12.0,-999.0,79,-99.99,,,0.00,weatherlink.com 1.10,2015-03-31 20:38:00,
2015-03-31 13:53:00,58.0,52.0,30.16,West,267,13.0,-999.0,79,-99.99,,,0.00,weatherlink.com 1.10,2015-03-31 20:53:00,
2015-03-31 14:08:00,58.1,51.0,30.15,NW,315,7.0,-999.0,78,-99.99,,,0.00,weatherlink.com 1.10,2015-03-31 21:08:00,
2015-03-31 14:23:00,58.2,51.0,30.15,WNW,294,6.0,-999.0,78,-99.99,,,0.00,weatherlink.com 1.10,2015-03-31 21:23:00,
2015-03-31 14:38:00,58.2,51.0,30.15,WNW,290,7.0,-999.0,78,-99.99,,,0.00,weatherlink.com 1.10,2015-03-31 21:38:00,
2015-03-31 14:53:00,58.2,51.0,30.14,West,268,6.0,-999.0,78,-99.99,,,0.00,weatherlink.com 1.10,2015-03-31 21:53:00,
2015-03-31 15:08:00,58.0,51.0,30.14,WNW,290,12.0,-999.0,78,-99.99,,,0.00,weatherlink.com 1.10,2015-03-31 22:08:00,
2015-03-31 15:23:00,58.2,51.0,30.14,NW,309,7.0,-999.0,78,-99.99,,,0.00,weatherlink.com 1.10,2015-03-31 22:23:00,
2015-03-31 15:38:00,57.7,51.0,30.14,West,276,6.0,-999.0,77,-99.99,,,0.00,weatherlink.com 1.10,2015-03-31 22:38:00,
2015-03-31 15:53:00,58.0,51.0,30.14,WNW,302,12.0,-999.0,77,-99.99,,,0.00,weatherlink.com 1.10,2015-03-31 22:53:00,
2015-03-31 16:08:00,57.7,51.0,30.14,West,270,13.0,-999.0,78,-99.99,,,0.00,weatherlink.com 1.10,2015-03-31 23:08:00,
2015-03-31 16:23:00,57.6,50.0,30.14,WNW,285,11.0,-999.0,77,-99.99,,,0.00,weatherlink.com 1.10,2015-03-31 23:23:00,
2015-03-31 16:38:00,57.3,50.0,30.14,WNW,297,5.0,-999.0,77,-99.99,,,0.00,weatherlink.com 1.10,2015-03-31 23:38:00,
2015-03-31 16:53:00,57.3,50.0,30.15,NW,309,6.0,-999.0,76,-99.99,,,0.00,weatherlink.com 1.10,2015-03-31 23:53:00,
2015-03-31 17:08:00,57.6,50.0,30.15,WNW,282,4.0,-999.0,76,-99.99,,,0.00,weatherlink.com 1.10,2015-04-01 00:08:00,
2015-03-31 17:23:00,57.3,50.0,30.15,NW,306,14.0,-999.0,77,-99.99,,,0.00,weatherlink.com 1.10,2015-04-01 00:23:00,
2015-03-31 17:38:00,57.1,50.0,30.15,NW,323,5.0,-999.0,77,-99.99,,,0.00,weatherlink.com 1.10,2015-04-01 00:38:00,
2015-03-31 17:53:00,57.5,50.0,30.16,NW,321,5.0,-999.0,76,-99.99,,,0.00,weatherlink.com 1.10,2015-04-01 00:53:00,
2015-03-31 18:08:00,57.4,50.0,30.16,NW,312,2.0,-999.0,75,-99.99,,,0.00,weatherlink.com 1.10,2015-04-01 01:08:00,
2015-03-31 18:23:00,57.5,50.0,30.16,NNW,331,0.0,-999.0,75,-99.99,,,0.00,weatherlink.com 1.10,2015-04-01 01:23:00,
2015-03-31 18:39:00,57.0,49.0,30.16,NE,48,1.0,-999.0,75,-99.99,,,0.00,weatherlink.com 1.10,2015-04-01 01:39:00,
2015-03-31 18:53:00,56.5,49.0,30.15,NW,319,5.0,-999.0,75,-99.99,,,0.00,weatherlink.com 1.10,2015-04-01 01:53:00,